Date String (YYYY-MM-DD hh:mm:ss) UTC,Instrument flags,Ambient pressure (hPa),Sample flow (lpm),Bypass flow (lpm),Sample temperature (°C),Ambient temperature (°C),ASC tube jacket temperature (°C),LED temperature (°C),Box temperature (°C),Sample RH (%),Span deviation,Mass concentration (μg/m³),Mass concentration (μg/m³),Mass concentration (μg/m³)
DateTimeUTC,F1_M11,P_M11,Q1_M11,Q2_M11,T1_M11,T2_M11,T3_M11,T4_M11,T5_M11,U1_M11,ZSPAN_M11,X0_M11,X2_M11,X1_M11
2022-09-18 11:00:00,,0824.3,4.99,0.00,30.8,29.3,00.0,39.7,32.6,19.1,0000.0,0009.91,0004.81,0004.35
2022-09-18 11:01:00,,0824.4,5.00,0.00,30.8,29.3,00.0,39.7,32.5,19.1,0000.0,0009.77,0004.86,0004.40
2022-09-18 11:02:00,,0824.5,5.01,0.00,30.8,29.2,00.0,39.7,32.6,19.1,0000.0,0008.74,0004.89,0004.43
2022-09-18 11:03:00,,0824.5,4.99,0.00,30.8,29.3,00.0,39.7,32.6,19.0,0000.0,0008.56,0004.93,0004.46
2022-09-18 11:04:00,,0824.4,5.01,0.00,30.8,29.3,00.0,39.6,32.6,19.1,0000.0,0008.44,0004.94,0004.48
2022-09-18 11:05:00,,0824.4,5.01,0.00,30.8,29.2,00.0,39.7,32.6,19.1,0000.0,0008.41,0004.92,0004.51
2022-09-18 11:06:00,,0824.4,4.99,0.00,30.8,29.2,00.0,39.7,32.6,19.0,0000.0,0008.45,0004.97,0004.52
2022-09-18 11:07:00,,0824.4,5.00,0.00,30.8,29.3,00.0,39.7,32.6,18.9,0000.0,0008.37,0004.97,0004.53
2022-09-18 11:08:00,,0824.4,5.00,0.00,30.8,29.3,00.0,39.7,32.6,18.9,0000.0,0008.27,0004.96,0004.54
2022-09-18 11:09:00,,0824.6,4.99,0.00,30.8,29.3,00.0,39.6,32.6,18.9,0000.0,0008.16,0004.92,0004.54
2022-09-18 11:10:00,,0824.6,5.01,0.00,30.8,29.2,00.0,39.7,32.5,18.9,0000.0,0008.17,0004.95,0004.54
2022-09-18 11:11:00,,0824.7,5.01,0.00,30.8,29.2,00.0,39.7,32.5,18.9,0000.0,0008.29,0004.97,0004.54
2022-09-18 11:12:00,,0824.6,4.99,0.00,30.8,29.2,00.0,39.7,32.6,19.0,0000.0,0008.32,0004.96,0004.51
2022-09-18 11:13:00,,0824.6,5.00,0.00,30.8,29.3,00.0,39.6,32.6,19.0,0000.0,0008.25,0004.96,0004.52
2022-09-18 11:14:00,,0824.7,5.01,0.00,30.8,29.2,00.0,39.6,32.6,18.9,0000.0,0008.23,0004.97,0004.52
2022-09-18 11:15:00,,0824.6,4.99,0.00,30.8,29.2,00.0,39.7,32.6,18.9,0000.0,0008.09,0004.98,0004.52
2022-09-18 11:16:00,,0824.7,5.01,0.00,30.8,29.2,00.0,39.7,32.5,18.9,0000.0,0008.03,0004.99,0004.52
2022-09-18 11:17:00,,0824.6,5.00,0.00,30.8,29.2,00.0,39.7,32.5,18.9,0000.0,0008.00,0004.99,0004.51
2022-09-18 11:18:00,,0824.6,5.00,0.00,30.8,29.3,00.0,39.6,32.6,19.0,0000.0,0008.01,0004.97,0004.52
2022-09-18 11:19:00,,0824.7,4.99,0.00,30.8,29.3,00.0,39.6,32.6,19.1,0000.0,0008.13,0005.01,0004.53
2022-09-18 11:20:00,,0824.6,5.00,0.00,30.8,29.2,00.0,39.7,32.5,19.1,0000.0,0008.54,0005.06,0004.57
2022-09-18 11:21:00,,0824.7,5.00,0.00,30.8,29.2,00.0,39.6,32.5,19.0,0000.0,0008.50,0005.06,0004.58
2022-09-18 11:22:00,,0824.7,4.99,0.00,30.8,29.2,00.0,39.6,32.5,19.0,0000.0,0008.36,0005.06,0004.60
2022-09-18 11:23:00,,0824.7,5.00,0.00,30.8,29.2,00.0,39.6,32.5,18.9,0000.0,0008.42,0005.10,0004.63
2022-09-18 11:24:00,,0824.6,5.01,0.00,30.8,29.2,00.0,39.6,32.6,18.8,0000.0,0009.10,0005.11,0004.65
2022-09-18 11:25:00,,0824.7,4.99,0.00,30.8,29.2,00.0,39.6,32.6,18.9,0000.0,0009.86,0005.14,0004.66
2022-09-18 11:26:00,,0824.8,5.01,0.00,30.8,29.2,00.0,39.6,32.5,19.0,0000.0,0009.98,0005.15,0004.68
2022-09-18 11:27:00,,0824.8,5.01,0.00,30.8,29.2,00.0,39.6,32.5,19.1,0000.0,0009.96,0005.16,0004.70
2022-09-18 11:28:00,,0824.8,4.99,0.00,30.8,29.2,00.0,39.6,32.5,19.0,0000.0,0010.54,0005.17,0004.71
2022-09-18 11:29:00,,0824.8,5.00,0.00,30.8,29.2,00.0,39.6,32.5,19.1,0000.0,0010.72,0005.19,0004.73
2022-09-18 11:30:00,,0824.7,5.01,0.00,30.8,29.2,00.0,39.6,32.5,19.2,0000.0,0010.58,0005.17,0004.74
2022-09-18 11:31:00,,0824.7,4.99,0.00,30.8,29.2,00.0,39.6,32.5,19.1,0000.0,0011.06,0005.16,0004.74
2022-09-18 11:32:00,,0824.7,5.01,0.00,30.8,29.2,00.0,39.6,32.5,19.1,0000.0,0011.10,0005.19,0004.75
2022-09-18 11:33:00,,0824.7,4.99,0.00,30.8,29.2,00.0,39.6,32.5,19.1,0000.0,0011.22,0005.19,0004.75
2022-09-18 11:34:00,,0824.8,5.00,0.00,30.8,29.2,00.0,39.6,32.5,19.1,0000.0,0011.39,0005.21,0004.75
2022-09-18 11:35:00,,0824.8,5.00,0.00,30.8,29.2,00.0,39.6,32.5,19.2,0000.0,0010.93,0005.25,0004.78
2022-09-18 11:36:00,,0824.9,5.00,0.00,30.8,29.2,00.0,39.6,32.5,19.3,0000.0,0010.19,0005.26,0004.80
2022-09-18 11:37:00,,0824.9,4.99,0.00,30.8,29.2,00.0,39.6,32.5,19.4,0000.0,0010.17,0005.30,0004.84
2022-09-18 11:38:00,,0824.9,5.00,0.00,30.8,29.2,00.0,39.6,32.5,19.4,0000.0,0010.36,0005.36,0004.86
2022-09-18 11:39:00,,0824.9,5.01,0.00,30.8,29.2,00.0,39.6,32.5,19.3,0000.0,0009.81,0005.39,0004.88
2022-09-18 11:40:00,,0824.9,4.99,0.00,30.8,29.2,00.0,39.6,32.5,19.3,0000.0,0009.75,0005.42,0004.89
2022-09-18 11:41:00,,0824.9,5.01,0.00,30.8,29.2,00.0,39.6,32.5,19.3,0000.0,0010.38,0005.46,0004.89
2022-09-18 11:42:00,,0824.9,5.00,0.00,30.8,29.2,00.0,39.6,32.5,19.3,0000.0,0010.00,0005.45,0004.91
2022-09-18 11:43:00,,0824.9,4.99,0.00,30.8,29.2,00.0,39.6,32.5,19.4,0000.0,0010.02,0005.45,0004.92
2022-09-18 11:44:00,,0824.8,5.01,0.00,30.8,29.2,00.0,39.6,32.5,19.5,0000.0,0010.16,0005.51,0004.96
2022-09-18 11:45:00,,0824.9,5.00,0.00,30.8,29.2,00.0,39.6,32.5,19.5,0000.0,0010.96,0005.51,0004.98
2022-09-18 11:46:00,,0825.0,4.99,0.00,30.8,29.2,00.0,39.6,32.5,19.5,0000.0,0011.10,0005.50,0005.00
2022-09-18 11:47:00,,0825.1,5.01,0.00,30.8,29.2,00.0,39.6,32.5,19.3,0000.0,0011.24,0005.51,0005.00
2022-09-18 11:48:00,,0825.1,4.99,0.00,30.8,29.2,00.0,39.6,32.5,19.4,0000.0,0011.22,0005.50,0004.99
2022-09-18 11:49:00,,0825.1,5.00,0.00,30.7,29.1,00.0,39.6,32.5,19.3,0000.0,0011.06,0005.45,0004.97
2022-09-18 11:50:00,,0825.1,5.00,0.00,30.8,29.2,00.0,39.6,32.5,19.2,0000.0,0011.01,0005.44,0004.94
2022-09-18 11:51:00,,0825.1,4.99,0.00,30.8,29.2,00.0,39.6,32.5,19.2,0000.0,0010.94,0005.41,0004.93
2022-09-18 11:52:00,,0825.2,5.01,0.00,30.7,29.1,00.0,39.6,32.4,19.2,0000.0,0010.43,0005.37,0004.93
2022-09-18 11:53:00,,0825.2,5.01,0.00,30.7,29.1,00.0,39.6,32.4,19.3,0000.0,0010.12,0005.38,0004.91
2022-09-18 11:54:00,,0825.3,4.99,0.00,30.7,29.2,00.0,39.6,32.5,19.4,0000.0,0010.18,0005.36,0004.89
2022-09-18 11:55:00,,0825.3,5.01,0.00,30.7,29.2,00.0,39.6,32.4,19.4,0000.0,0010.18,0005.33,0004.87
2022-09-18 11:56:00,,0825.2,5.01,0.00,30.7,29.2,00.0,39.6,32.5,19.3,0000.0,0009.32,0005.30,0004.84
2022-09-18 11:57:00,,0825.2,4.99,0.00,30.7,29.1,00.0,39.6,32.4,19.3,0000.0,0008.97,0005.32,0004.82
2022-09-18 11:58:00,,0825.2,5.01,0.00,30.7,29.1,00.0,39.6,32.4,19.4,0000.0,0008.85,0005.29,0004.80
2022-09-18 11:59:00,,0825.2,5.00,0.00,30.7,29.2,00.0,39.6,32.4,19.4,0000.0,0008.61,0005.24,0004.79
